Back to catalog

METEOR 2-11 DEB

AlivePO
NORAD 43309·DEBRIS·🇷🇺 Russia

Launched Jul 5, 1984 from Plesetsk Cosmodrome

Loading…

Next Passes (next 24 hours)

TLE

FreshSource: Space-Track

Epoch: Sep 14, 2026, 10:31 UTC

1 43309U 84072U   26257.43820571  .00000123  00000-0  73080-4 0  9990
2 43309  82.5266 296.1272 0033406  87.2645 273.2347 13.99688029575782

Track METEOR 2-11 DEB in real time with AllMySat

Download on the App Store